�������l�o���
Date,Time,MP-1(��Sv/h),MP-2(��Sv/h),MP-3(��Sv/h),MP-4(��Sv/h),MP-5(��Sv/h),MP-6(��Sv/h),MP-7(��Sv/h),MP-8(��Sv/h),����,����(m/s),���J
2018/07/25,00:00,0.904,1.292,0.908,1.617,1.153,0.482,0.848,0.802,���쓌,1.2,��
2018/07/25,00:10,0.902,1.288,0.905,1.617,1.151,0.482,0.849,0.800,�쓌,1.4,��
2018/07/25,00:20,0.904,1.287,0.907,1.620,1.155,0.483,0.847,0.801,��,1.4,��
2018/07/25,00:30,0.903,1.290,0.907,1.619,1.154,0.481,0.849,0.800,���쓌,0.6,��
2018/07/25,00:40,0.905,1.289,0.905,1.619,1.152,0.482,0.846,0.802,�쓌,1.2,��
2018/07/25,00:50,0.902,1.287,0.907,1.617,1.153,0.482,0.848,0.801,���k��,1.1,��
2018/07/25,01:00,0.901,1.289,0.905,1.618,1.153,0.483,0.848,0.801,��,0.6,��
2018/07/25,01:10,0.903,1.288,0.907,1.620,1.154,0.483,0.850,0.799,��,1.1,��
2018/07/25,01:20,0.902,1.288,0.904,1.617,1.153,0.482,0.848,0.799,��,0.6,��
2018/07/25,01:30,0.903,1.289,0.904,1.620,1.154,0.483,0.848,0.798,-,CALM,��
2018/07/25,01:40,0.904,1.289,0.906,1.618,1.154,0.483,0.849,0.802,-,CALM,��
2018/07/25,01:50,0.904,1.289,0.907,1.621,1.157,0.485,0.848,0.801,�k�k��,0.6,��
2018/07/25,02:00,0.905,1.290,0.904,1.616,1.153,0.483,0.847,0.801,-,CALM,��
2018/07/25,02:10,0.904,1.288,0.907,1.615,1.154,0.484,0.849,0.801,�k�k��,0.8,��
2018/07/25,02:20,0.903,1.290,0.910,1.617,1.155,0.484,0.849,0.801,-,CALM,��
2018/07/25,02:30,0.904,1.289,0.907,1.620,1.154,0.483,0.846,0.801,-,CALM,��
2018/07/25,02:40,0.906,1.288,0.905,1.619,1.155,0.483,0.847,0.802,-,CALM,��
2018/07/25,02:50,0.905,1.289,0.907,1.620,1.154,0.484,0.851,0.802,-,CALM,��
2018/07/25,03:00,0.903,1.290,0.907,1.617,1.154,0.484,0.849,0.802,-,CALM,��
2018/07/25,03:10,0.906,1.289,0.906,1.619,1.154,0.483,0.849,0.801,���k��,0.6,��
2018/07/25,03:20,0.905,1.289,0.906,1.614,1.154,0.484,0.849,0.801,-,CALM,�L
2018/07/25,03:30,0.904,1.287,0.907,1.616,1.152,0.484,0.849,0.801,-,CALM,��
2018/07/25,03:40,0.904,1.291,0.905,1.618,1.154,0.483,0.849,0.800,-,CALM,��
2018/07/25,03:50,0.904,1.290,0.907,1.616,1.154,0.483,0.848,0.801,���k��,0.6,�L
2018/07/25,04:00,0.904,1.289,0.906,1.619,1.152,0.486,0.848,0.801,-,CALM,�L
2018/07/25,04:10,0.903,1.288,0.907,1.619,1.154,0.485,0.848,0.800,-,CALM,��
2018/07/25,04:20,0.903,1.288,0.907,1.621,1.152,0.484,0.849,0.800,���k��,0.8,��
2018/07/25,04:30,0.903,1.289,0.906,1.619,1.149,0.485,0.849,0.801,���k��,1.4,��
2018/07/25,04:40,0.903,1.287,0.906,1.616,1.152,0.484,0.848,0.801,���k��,1.7,��
2018/07/25,04:50,0.904,1.289,0.907,1.617,1.152,0.485,0.848,0.799,���k��,2.0,��
2018/07/25,05:00,0.903,1.288,0.906,1.619,1.151,0.485,0.847,0.800,���k��,1.4,��
2018/07/25,05:10,0.903,1.287,0.905,1.620,1.149,0.483,0.848,0.801,�쐼,0.8,��
2018/07/25,05:20,0.905,1.289,0.905,1.619,1.152,0.485,0.849,0.801,-,CALM,��
2018/07/25,05:30,0.903,1.287,0.904,1.618,1.152,0.483,0.848,0.803,���쓌,1.4,��
2018/07/25,05:40,0.904,1.286,0.908,1.617,1.151,0.482,0.849,0.800,�k��,1.2,��
2018/07/25,05:50,0.902,1.288,0.905,1.619,1.154,0.485,0.847,0.801,�k��,0.9,��
2018/07/25,06:00,0.904,1.289,0.906,1.620,1.153,0.483,0.848,0.801,�k��,1.5,��
2018/07/25,06:10,0.902,1.286,0.907,1.618,1.153,0.482,0.847,0.801,���k��,1.4,��
2018/07/25,06:20,0.901,1.286,0.904,1.616,1.152,0.483,0.848,0.801,���k��,1.5,��
2018/07/25,06:30,0.902,1.287,0.905,1.617,1.153,0.483,0.847,0.802,�k�k��,1.5,��
2018/07/25,06:40,0.902,1.289,0.905,1.620,1.152,0.484,0.846,0.801,���k��,1.5,��
2018/07/25,06:50,0.900,1.286,0.907,1.616,1.153,0.482,0.846,0.802,�k�k��,1.4,��
2018/07/25,07:00,0.901,1.288,0.906,1.616,1.153,0.482,0.847,0.800,���k��,1.9,��
2018/07/25,07:10,0.903,1.289,0.904,1.618,1.151,0.482,0.848,0.803,���k��,2.0,��
2018/07/25,07:20,0.899,1.288,0.905,1.617,1.152,0.482,0.848,0.800,���k��,2.2,��
2018/07/25,07:30,0.898,1.285,0.904,1.615,1.152,0.481,0.848,0.800,�k��,2.2,��
2018/07/25,07:40,0.900,1.286,0.903,1.615,1.149,0.481,0.847,0.800,�k��,2.0,��
2018/07/25,07:50,0.900,1.286,0.904,1.618,1.151,0.481,0.847,0.799,�k��,1.5,��
2018/07/25,08:00,0.903,1.289,0.904,1.616,1.152,0.481,0.847,0.800,�k,1.2,��
2018/07/25,08:10,0.901,1.287,0.905,1.617,1.152,0.483,0.847,0.798,�k,2.0,��
2018/07/25,08:20,0.901,1.285,0.905,1.618,1.152,0.482,0.848,0.800,�k��,1.5,��
2018/07/25,08:30,0.901,1.287,0.903,1.616,1.151,0.483,0.848,0.800,�k�k��,1.7,��
2018/07/25,08:40,0.904,1.285,0.907,1.617,1.154,0.482,0.845,0.801,�k�k��,0.9,��
2018/07/25,08:50,0.902,1.287,0.907,1.618,1.154,0.480,0.847,0.800,�쓌,1.7,��
2018/07/25,09:00,0.902,1.284,0.905,1.615,1.151,0.482,0.844,0.799,���k��,1.4,��
2018/07/25,09:10,0.902,1.283,0.904,1.619,1.152,0.481,0.845,0.798,���k��,0.9,��
2018/07/25,09:20,0.902,1.281,0.905,1.617,1.153,0.483,0.846,0.797,���k��,1.4,��
2018/07/25,09:30,0.903,1.286,0.904,1.617,1.152,0.481,0.847,0.798,���k��,1.2,��
2018/07/25,09:40,0.901,1.289,0.904,1.618,1.153,0.482,0.847,0.799,���k��,1.2,��
2018/07/25,09:50,0.903,1.291,0.907,1.617,1.155,0.483,0.847,0.799,���k��,1.7,��
2018/07/25,10:00,0.905,1.288,0.906,1.615,1.155,0.482,0.848,0.798,���k��,2.6,��
2018/07/25,10:10,0.904,1.291,0.906,1.619,1.155,0.481,0.848,0.797,��,2.6,��
2018/07/25,10:20,0.905,1.286,0.905,1.617,1.153,0.482,0.848,0.799,���k��,2.6,��
2018/07/25,10:30,0.905,1.287,0.907,1.618,1.152,0.482,0.848,0.798,��,2.6,��
2018/07/25,10:40,0.904,1.289,0.904,1.621,1.155,0.481,0.849,0.798,���k��,3.2,��
2018/07/25,10:50,0.905,1.290,0.903,1.617,1.154,0.482,0.849,0.800,���k��,3.4,��
2018/07/25,11:00,0.905,1.290,0.904,1.620,1.153,0.481,0.847,0.800,���k��,3.4,��
2018/07/25,11:10,0.905,1.290,0.906,1.615,1.156,0.484,0.848,0.802,��,4.0,��
2018/07/25,11:20,0.906,1.288,0.906,1.616,1.155,0.484,0.850,0.798,���k��,3.5,��
2018/07/25,11:30,0.906,1.288,0.906,1.617,1.153,0.483,0.849,0.798,��,3.5,��
2018/07/25,11:40,0.905,1.286,0.904,1.617,1.157,0.484,0.848,0.799,���k��,3.6,��
2018/07/25,11:50,0.904,1.287,0.907,1.618,1.153,0.484,0.848,0.800,��,4.1,��
2018/07/25,12:00,0.903,1.289,0.906,1.619,1.158,0.483,0.850,0.801,��,3.3,��
2018/07/25,12:10,0.905,1.289,0.909,1.617,1.157,0.483,0.850,0.801,��,3.4,��
2018/07/25,12:20,0.906,1.292,0.905,1.619,1.157,0.484,0.848,0.797,��,3.9,��
2018/07/25,12:30,0.904,1.292,0.906,1.620,1.158,0.481,0.850,0.801,��,4.6,��
2018/07/25,12:40,0.903,1.294,0.905,1.620,1.158,0.483,0.849,0.801,��,3.7,��
2018/07/25,12:50,0.903,1.292,0.908,1.620,1.156,0.482,0.850,0.801,��,4.1,��
2018/07/25,13:00,0.904,1.290,0.905,1.621,1.161,0.481,0.849,0.801,���쓌,4.5,��
2018/07/25,13:10,0.901,1.291,0.906,1.620,1.158,0.481,0.847,0.800,���쓌,3.6,��
2018/07/25,13:20,0.903,1.293,0.907,1.622,1.159,0.484,0.848,0.799,�쓌,2.3,��
2018/07/25,13:30,0.902,1.289,0.905,1.621,1.158,0.483,0.849,0.800,�쓌,2.9,��
2018/07/25,13:40,0.901,1.291,0.907,1.620,1.158,0.484,0.849,0.801,���쓌,2.8,��
2018/07/25,13:50,0.901,1.292,0.908,1.621,1.158,0.485,0.849,0.802,�쓌,3.1,��
2018/07/25,14:00,0.902,1.293,0.906,1.619,1.160,0.484,0.850,0.802,���쓌,3.3,��
2018/07/25,14:10,0.901,1.291,0.908,1.622,1.160,0.483,0.849,0.800,��쓌,3.4,��
2018/07/25,14:20,0.902,1.290,0.906,1.621,1.158,0.483,0.851,0.801,��쓌,3.8,��
2018/07/25,14:30,0.905,1.291,0.906,1.621,1.160,0.482,0.850,0.800,��쓌,3.9,��
2018/07/25,14:40,0.901,1.291,0.909,1.622,1.159,0.483,0.849,0.801,�쓌,4.6,��
2018/07/25,14:50,0.903,1.293,0.907,1.618,1.159,0.482,0.850,0.800,��쓌,4.1,��
2018/07/25,15:00,0.903,1.290,0.908,1.622,1.158,0.483,0.850,0.798,��쓌,4.9,��
2018/07/25,15:10,0.903,1.291,0.909,1.621,1.159,0.483,0.847,0.800,��쓌,4.4,��
2018/07/25,15:20,0.902,1.292,0.907,1.619,1.161,0.481,0.848,0.799,��쓌,4.3,��
2018/07/25,15:30,0.903,1.292,0.907,1.621,1.159,0.482,0.848,0.800,��쓌,4.0,��
2018/07/25,15:40,0.901,1.293,0.907,1.622,1.162,0.482,0.850,0.800,��쓌,4.3,��
2018/07/25,15:50,0.902,1.291,0.908,1.621,1.159,0.482,0.849,0.799,��쓌,4.7,��
2018/07/25,16:00,0.903,1.292,0.907,1.622,1.159,0.483,0.848,0.799,��쓌,4.6,��
2018/07/25,16:10,0.903,1.293,0.906,1.622,1.159,0.482,0.849,0.799,��쓌,3.5,��
2018/07/25,16:20,0.904,1.293,0.907,1.621,1.158,0.482,0.849,0.799,��쓌,4.4,��
2018/07/25,16:30,0.902,1.294,0.906,1.621,1.159,0.482,0.850,0.799,��쓌,4.2,��
2018/07/25,16:40,0.906,1.293,0.906,1.620,1.158,0.484,0.849,0.800,��쓌,5.6,��
2018/07/25,16:50,0.902,1.294,0.908,1.621,1.159,0.482,0.848,0.800,��쓌,5.4,��
2018/07/25,17:00,0.904,1.291,0.907,1.620,1.158,0.482,0.851,0.799,��쓌,4.1,��
2018/07/25,17:10,0.902,1.293,0.908,1.619,1.159,0.484,0.850,0.802,��쓌,5.2,��
2018/07/25,17:20,0.905,1.295,0.907,1.621,1.159,0.481,0.850,0.801,��쓌,5.2,��
2018/07/25,17:30,0.903,1.292,0.909,1.620,1.160,0.483,0.850,0.799,��쓌,5.0,��
2018/07/25,17:40,0.905,1.296,0.908,1.622,1.157,0.483,0.850,0.800,��쓌,4.5,��
2018/07/25,17:50,0.904,1.292,0.909,1.621,1.161,0.485,0.849,0.800,��,5.4,��
2018/07/25,18:00,0.903,1.296,0.909,1.626,1.161,0.484,0.849,0.802,��쓌,5.1,��
2018/07/25,18:10,0.901,1.290,0.909,1.623,1.161,0.484,0.849,0.801,��쓌,4.1,��
2018/07/25,18:20,0.903,1.293,0.908,1.622,1.161,0.483,0.848,0.801,��쓌,4.4,��
2018/07/25,18:30,0.902,1.292,0.909,1.622,1.159,0.481,0.849,0.801,��쓌,4.9,��
2018/07/25,18:40,0.902,1.293,0.909,1.623,1.158,0.484,0.850,0.800,��쓌,4.9,��
2018/07/25,18:50,0.900,1.293,0.909,1.624,1.160,0.482,0.849,0.800,��쓌,5.2,��
2018/07/25,19:00,0.901,1.293,0.910,1.624,1.160,0.484,0.847,0.800,��쓌,4.5,��
2018/07/25,19:10,0.901,1.293,0.909,1.623,1.160,0.484,0.850,0.799,��쓌,4.5,�L
2018/07/25,19:20,0.899,1.295,0.908,1.623,1.156,0.483,0.850,0.800,��쓌,4.6,�L
2018/07/25,19:30,0.900,1.295,0.908,1.622,1.158,0.483,0.849,0.800,��쓌,3.6,�L
2018/07/25,19:40,0.901,1.290,0.908,1.625,1.158,0.484,0.848,0.802,��쓌,4.5,��
2018/07/25,19:50,0.903,1.294,0.909,1.622,1.160,0.484,0.851,0.800,��쓌,4.2,��
2018/07/25,20:00,0.900,1.289,0.911,1.621,1.157,0.482,0.851,0.800,��쓌,4.4,��
2018/07/25,20:10,0.900,1.294,0.911,1.621,1.160,0.483,0.848,0.800,�쓌,4.0,�L
2018/07/25,20:20,0.903,1.291,0.908,1.620,1.159,0.487,0.851,0.800,�쓌,5.5,�L
2018/07/25,20:30,0.901,1.291,0.908,1.621,1.159,0.483,0.849,0.799,��쓌,4.5,��
2018/07/25,20:40,0.901,1.293,0.909,1.623,1.159,0.483,0.850,0.802,��쓌,4.8,��
2018/07/25,20:50,0.902,1.294,0.909,1.623,1.159,0.483,0.847,0.801,��쓌,4.9,��
2018/07/25,21:00,0.900,1.294,0.908,1.621,1.159,0.482,0.850,0.801,��쓌,3.7,��
2018/07/25,21:10,0.900,1.294,0.910,1.622,1.157,0.481,0.849,0.801,��쓌,4.3,��
2018/07/25,21:20,0.898,1.293,0.907,1.621,1.158,0.483,0.849,0.800,��쓌,4.2,��
2018/07/25,21:30,0.899,1.293,0.910,1.619,1.157,0.482,0.849,0.800,��쓌,3.9,��
2018/07/25,21:40,0.900,1.293,0.910,1.621,1.158,0.484,0.850,0.800,��쓌,3.3,��
2018/07/25,21:50,0.901,1.291,0.910,1.623,1.160,0.483,0.848,0.802,��쓌,4.5,��
2018/07/25,22:00,0.902,1.295,0.909,1.622,1.157,0.483,0.848,0.800,��쓌,3.5,��
2018/07/25,22:10,0.900,1.292,0.907,1.625,1.158,0.482,0.848,0.799,��쓌,3.7,��
2018/07/25,22:20,0.901,1.291,0.908,1.622,1.157,0.483,0.849,0.799,��쓌,3.9,��
2018/07/25,22:30,0.899,1.292,0.909,1.622,1.160,0.482,0.849,0.801,��,2.0,��
2018/07/25,22:40,0.898,1.294,0.908,1.623,1.158,0.484,0.849,0.800,��,2.6,��
2018/07/25,22:50,0.901,1.294,0.908,1.622,1.160,0.485,0.851,0.801,��,2.3,��
2018/07/25,23:00,0.900,1.293,0.909,1.624,1.159,0.485,0.849,0.801,��,2.3,��
2018/07/25,23:10,0.901,1.296,0.910,1.622,1.157,0.482,0.848,0.801,��,2.0,��
2018/07/25,23:20,0.901,1.297,0.910,1.621,1.159,0.485,0.849,0.801,��,2.5,��
2018/07/25,23:30,0.901,1.293,0.910,1.619,1.159,0.482,0.848,0.801,��,2.6,��
2018/07/25,23:40,0.901,1.293,0.908,1.623,1.158,0.483,0.849,0.800,��쐼,2.0,��
2018/07/25,23:50,0.899,1.294,0.907,1.623,1.157,0.483,0.849,0.803,��쐼,3.2,��
